Location: San Dimas Community Center
(34.1072°N, 117.8048°W)
Time: 22:55:46
(UTC+00:00)

Cosmos 1110 Rocket - Pass Details

Date: 06 September 2025
Orbit: 748 x 776 km, 74.0° (Epoch: 10 December)

Event Time Altitude Azimuth Distance (km) Brightness Sun altitude
Rises 12:31:53 0° 346° (NNW) 3,225 7.3 -12.3°
Reaches altitude 10° 12:34:16 10° 348° (NNW) 2,300 6.5 -11.8°
Maximum altitude 12:39:28 68° 72° (ENE) 824 4.4 -10.8°
Drops below altitude 10° 12:44:40 10° 155° (SSE) 2,305 6.6 -9.7°
Sets 12:47:04 0° 158° (SSE) 3,232 7.3 -9.2°
